Wilton, MN

1:43 PM CDT on July 26, 2016 (GMT -0500)
Bemidji-Beltrami County

Weather History for KBJI - January, 2013

Change the Weather History Date:

Wednesday, January 2, 2013

  Actual Average Record
Temperature  
Mean Temperature 16 °F -  
Max Temperature 22 °F 15 °F 41 °F (1964)
Min Temperature 8 °F -7 °F -36 °F (2014)
Degree Days  
Heating Degree Days 50    
Moisture  
Dew Point 15 °F    
Average Humidity 90    
Maximum Humidity 94    
Minimum Humidity 86    
Precipitation  
Precipitation 0.00 in - - ()
Sea Level Pressure  
Sea Level Pressure 29.89 in    
Wind  
Wind Speed 9 mph (WSW)    
Max Wind Speed 16 mph    
Max Gust Speed 17 mph    
Visibility 6 miles    
Events Snow    
Averages and records for this station are not official NWS values.
T = Trace of Precipitation, MM = Missing Value Source: NWS Daily Summary

Daily Weather History Graph

Daily Weather History Graph

Search for Another Location

Airport or City:

Trip Planner

Search our weather history database for the weather conditions in past years. The results will help you decide how hot, cold, wet, or windy it might be!

Date:

Astronomy

Jan. 02, 2013 Rise Set
Actual Time 8:07 AM CST 4:40 PM CST
Civil Twilight 7:31 AM CST 5:16 PM CST
Nautical Twilight 6:52 AM CST 5:55 PM CST
Astronomical Twilight 6:15 AM CST 6:32 PM CST
Moon 10:39 PM CST (1/2) 10:26 AM CST (1/2)
Length of Visible Light 9h 44m
Length of Day
8h 33m
Waning Gibbous, 75% of the Moon is Illuminated
Jan 2
Waning Gibbous
Jan 4
Last Quarter
Jan 11
New
Jan 18
First Quarter
Jan 26
Full

Hourly Weather History & Observations

Time (CST) Temp. Windchill Dew Point Humidity Pressure Visibility Wind Dir Wind Speed Gust Speed Precip Events Conditions
12:15 AM 18.5 °F 9.3 °F 16.3 °F 91% 29.83 in 10.0 mi South 6.9 mph - N/A   Overcast
12:35 AM 18.7 °F 7.0 °F 16.5 °F 91% 29.82 in 10.0 mi SSW 10.4 mph - N/A   Overcast
12:55 AM 19.0 °F 7.5 °F 16.7 °F 91% 29.81 in 10.0 mi South 10.4 mph - N/A   Overcast
1:15 AM 19.0 °F 7.5 °F 16.7 °F 91% 29.82 in 10.0 mi SSW 10.4 mph - N/A   Overcast
1:55 AM 19.2 °F 8.4 °F 16.7 °F 90% 29.80 in 10.0 mi SSW 9.2 mph 16.1 mph N/A   Overcast
2:15 AM 19.0 °F 9.0 °F 16.3 °F 89% 29.80 in 10.0 mi SSW 8.1 mph - N/A   Overcast
2:35 AM 19.0 °F 9.0 °F 16.5 °F 90% 29.80 in 10.0 mi SW 8.1 mph - N/A   Overcast
2:55 AM 19.0 °F 10.0 °F 16.3 °F 89% 29.80 in 10.0 mi South 6.9 mph - N/A   Overcast
3:15 AM 18.7 °F 7.0 °F 15.4 °F 87% 29.80 in 7.0 mi South 10.4 mph - N/A Snow Light Snow
3:35 AM 18.5 °F 8.4 °F 14.9 °F 86% 29.80 in 3.0 mi SSW 8.1 mph - N/A Snow Light Snow
3:55 AM 18.1 °F 10.0 °F 15.4 °F 89% 29.79 in 2.5 mi SSW 5.8 mph - N/A Snow Light Snow
4:15 AM 18.1 °F 8.9 °F 15.6 °F 90% 29.79 in 2.0 mi SSW 6.9 mph - N/A Snow Light Snow
4:35 AM 18.1 °F 7.9 °F 15.4 °F 89% 29.79 in 2.0 mi South 8.1 mph - N/A Snow Light Snow
4:55 AM 18.1 °F 7.9 °F 15.4 °F 89% 29.79 in 3.0 mi SSW 8.1 mph - N/A Snow Light Snow
5:15 AM 18.0 °F 8.7 °F 15.4 °F 90% 29.80 in 1.2 mi SSW 6.9 mph - N/A Snow Light Snow
5:35 AM 18.0 °F 9.8 °F 15.4 °F 90% 29.79 in 5.0 mi South 5.8 mph - N/A Snow Light Snow
6:15 AM 17.8 °F 7.5 °F 14.7 °F 88% 29.79 in 10.0 mi SSW 8.1 mph - N/A   Overcast
6:35 AM 17.6 °F 6.4 °F 14.4 °F 87% 29.79 in 10.0 mi SSW 9.2 mph - N/A   Overcast
6:55 AM 17.4 °F 9.1 °F 14.5 °F 88% 29.79 in 5.0 mi SSW 5.8 mph - N/A   Overcast
7:15 AM 17.2 °F 8.9 °F 14.9 °F 91% 29.79 in 7.0 mi South 5.8 mph - N/A   Overcast
7:35 AM 17.1 °F 7.6 °F 15.1 °F 92% 29.80 in 5.0 mi South 6.9 mph - N/A   Overcast
7:55 AM 17.1 °F 7.6 °F 15.3 °F 93% 29.80 in 5.0 mi SSW 6.9 mph - N/A   Overcast
8:15 AM 17.1 °F 10.0 °F 15.4 °F 93% 29.80 in 5.0 mi SSW 4.6 mph - N/A   Overcast
8:35 AM 17.2 °F 11.9 °F 15.4 °F 93% 29.80 in 4.0 mi South 3.5 mph - N/A Snow Light Snow
8:55 AM 17.2 °F 10.2 °F 15.6 °F 93% 29.80 in 4.0 mi South 4.6 mph - N/A   Overcast
9:15 AM 17.4 °F 10.4 °F 15.8 °F 93% 29.81 in 3.0 mi SSW 4.6 mph - N/A Snow Light Snow
9:35 AM 17.8 °F 12.5 °F 16.2 °F 93% 29.81 in 3.0 mi SSW 3.5 mph - N/A Snow Light Snow
9:55 AM 18.1 °F 10.0 °F 16.5 °F 93% 29.82 in 2.5 mi South 5.8 mph - N/A Snow Light Snow
10:15 AM 18.5 °F 11.7 °F 16.9 °F 93% 29.82 in 3.0 mi South 4.6 mph - N/A Snow Light Snow
10:35 AM 19.0 °F 12.3 °F 17.4 °F 93% 29.83 in 4.0 mi SSW 4.6 mph - N/A Snow Light Snow
10:55 AM 19.4 °F 12.8 °F 17.8 °F 93% 29.84 in 3.0 mi SSW 4.6 mph - N/A Snow Light Snow
11:15 AM 19.9 °F 14.9 °F 18.3 °F 93% 29.84 in 3.0 mi SW 3.5 mph - N/A Snow Light Snow
11:35 AM 20.3 °F - 18.9 °F 94% 29.84 in 2.5 mi Calm Calm - N/A Snow Light Snow
11:55 AM 20.8 °F 16.0 °F 19.4 °F 94% 29.84 in 2.5 mi WSW 3.5 mph - N/A Snow Light Snow
12:15 PM 21.6 °F 15.3 °F 19.9 °F 93% 29.84 in 4.0 mi West 4.6 mph - N/A Snow Light Snow
12:35 PM 22.1 °F 12.8 °F 20.5 °F 93% 29.83 in 3.0 mi West 8.1 mph - N/A Snow Light Snow
12:55 PM 22.6 °F 14.3 °F 21.2 °F 94% 29.84 in 4.0 mi West 6.9 mph - N/A   Overcast
1:15 PM 22.8 °F 12.2 °F 21.2 °F 93% 29.84 in 4.0 mi WNW 10.4 mph - N/A   Overcast
1:35 PM 22.8 °F 12.9 °F 21.2 °F 93% 29.84 in 4.0 mi WNW 9.2 mph - N/A   Overcast
1:55 PM 22.5 °F 11.7 °F 20.5 °F 92% 29.85 in 4.0 mi WNW 10.4 mph - N/A Snow Light Snow
2:15 PM 22.5 °F 11.1 °F 20.1 °F 91% 29.86 in 5.0 mi NW 11.5 mph - N/A Snow Light Snow
2:35 PM 22.1 °F 11.3 °F 19.6 °F 90% 29.87 in 5.0 mi NW 10.4 mph - N/A Snow Light Snow
2:55 PM 21.9 °F 11.0 °F 19.4 °F 90% 29.87 in 7.0 mi WNW 10.4 mph - N/A Snow Light Snow
3:15 PM 21.4 °F 9.7 °F 18.9 °F 90% 29.88 in 5.0 mi West 11.5 mph - N/A Snow Light Snow
3:35 PM 19.6 °F 6.2 °F 17.1 °F 90% 29.90 in 7.0 mi WNW 13.8 mph 17.3 mph N/A Snow Light Snow
3:55 PM 18.9 °F 5.9 °F 16.3 °F 90% 29.90 in 7.0 mi WNW 12.7 mph - N/A   Overcast
4:35 PM 17.4 °F 4.1 °F 15.4 °F 92% 29.93 in 5.0 mi WNW 12.7 mph - N/A   Overcast
4:55 PM 16.9 °F 2.8 °F 14.9 °F 92% 29.94 in 5.0 mi WNW 13.8 mph - N/A   Overcast
5:15 PM 16.5 °F 1.8 °F 14.4 °F 91% 29.96 in 5.0 mi WNW 15.0 mph - N/A   Overcast
5:35 PM 15.8 °F 2.1 °F 13.6 °F 91% 29.96 in 7.0 mi WNW 12.7 mph - N/A Snow Light Snow
5:55 PM 15.6 °F 0.1 °F 12.9 °F 89% 29.97 in 7.0 mi WNW 16.1 mph - N/A Snow Light Snow
6:15 PM 14.7 °F -0.5 °F 12.2 °F 90% 29.99 in 7.0 mi WNW 15.0 mph - N/A Snow Light Snow
6:35 PM 14.5 °F -0.2 °F 11.7 °F 88% 29.99 in 7.0 mi WNW 13.8 mph - N/A Snow Light Snow
6:55 PM 14.2 °F 0.0 °F 11.1 °F 88% 30.00 in 7.0 mi NW 12.7 mph - N/A   Overcast
7:15 PM 13.8 °F -1.1 °F 10.6 °F 87% 30.01 in 7.0 mi WNW 13.8 mph - N/A   Overcast
7:35 PM 13.6 °F -0.7 °F 10.2 °F 86% 30.02 in 7.0 mi NW 12.7 mph - N/A   Overcast
7:55 PM 13.1 °F -2.6 °F 9.9 °F 87% 30.02 in 7.0 mi WNW 15.0 mph - N/A Snow Light Snow
8:15 PM 12.4 °F -1.6 °F 9.1 °F 87% 30.02 in 5.0 mi WNW 11.5 mph - N/A Snow Light Snow
8:35 PM 12.0 °F -3.4 °F 8.6 °F 86% 30.03 in 10.0 mi WNW 13.8 mph - N/A Snow Light Snow
8:55 PM 11.3 °F -3.6 °F 7.9 °F 86% 30.04 in 10.0 mi WNW 12.7 mph - N/A Snow Light Snow
9:15 PM 11.1 °F -3.9 °F 7.7 °F 86% 30.05 in 7.0 mi WNW 12.7 mph - N/A Snow Light Snow
9:35 PM 10.8 °F -3.6 °F 7.5 °F 87% 30.05 in 7.0 mi NW 11.5 mph - N/A Snow Light Snow
9:55 PM 10.4 °F -5.4 °F 7.3 °F 87% 30.06 in 7.0 mi NW 13.8 mph - N/A Snow Light Snow
10:15 PM 10.4 °F -3.3 °F 7.3 °F 87% 30.06 in 7.0 mi WNW 10.4 mph - N/A Snow Light Snow
10:35 PM 10.2 °F -3.5 °F 7.0 °F 87% 30.07 in 7.0 mi WNW 10.4 mph - N/A Snow Light Snow
10:55 PM 9.7 °F -4.2 °F 6.8 °F 88% 30.08 in 7.0 mi WNW 10.4 mph - N/A Snow Light Snow
11:15 PM 9.5 °F -5.2 °F 6.8 °F 89% 30.08 in 7.0 mi WNW 11.5 mph - N/A Snow Light Snow
11:35 PM 9.0 °F -5.9 °F 6.3 °F 89% 30.08 in 7.0 mi WNW 11.5 mph - N/A Snow Light Snow
11:55 PM 8.6 °F -6.3 °F 6.1 °F 89% 30.09 in 7.0 mi NW 11.5 mph - N/A Snow Light Snow